Location: Fredericton
(45.9636°N, 66.6431°W)
Time: 10:26:02
(UTC-03:00)

Envisat - Pass Details

Date: 21 January 2022
Orbit: 764 x 765 km, 98.2° (Epoch: 17 May)

Event Time Altitude Azimuth Distance (km) Brightness Sun altitude
Rises 06:44:04 0° 1° (N) 3,242 6.1 -13.1°
Reaches altitude 10° 06:46:50 10° 347° (NNW) 2,311 5.2 -12.6°
Maximum altitude 06:50:37 22° 299° (WNW) 1,647 4.1 -12.0°
Drops below altitude 10° 06:54:24 10° 250° (WSW) 2,300 5.0 -11.4°
Sets 06:57:09 0° 235° (SW) 3,222 5.9 -10.9°
